Location: Kielce
(50.8833°N, 20.6167°E)
Time: 03:50:06
(UTC+02:00)

Vanguard 3 - All Passes

Search period start: 21 April 2021 00:00
Search period end: 01 May 2021 00:00
Orbit: 508 x 3262 km, 33.3° (Epoch: 20 April)

Date Brightness Start Highest point End Pass type
(mag) Time Alt. Az. Time Alt. Az. Time Alt. Az.
26 Apr - 00:47:47 10° SSW 00:50:11 12° S 00:52:15 10° SSE night (unlit)
26 Apr - 23:33:07 10° SSW 23:36:27 13° S 23:39:14 10° SSE visible
27 Apr - 01:45:00 10° SSW 01:47:14 12° S 01:49:12 10° SSE night (unlit)
27 Apr - 22:19:12 10° S 22:22:28 12° SSE 22:25:16 10° SE visible
28 Apr - 00:29:31 10° SW 00:33:42 15° S 00:37:00 10° SSE night (unlit)
28 Apr - 23:14:19 10° SSW 23:19:53 17° S 23:24:06 10° SE visible
29 Apr - 01:27:14 10° SW 01:30:46 14° SSW 01:33:36 10° SSE night (unlit)
29 Apr - 21:59:32 10° SSW 22:05:47 16° SSE 22:10:34 10° SE visible
30 Apr - 00:11:27 10° SW 00:17:11 19° S 00:21:22 10° SE visible
30 Apr - 02:27:20 10° SSW 02:27:34 10° SSW 02:27:47 10° SSW night (unlit)
30 Apr - 20:45:42 10° S 20:51:22 14° SSE 20:56:01 10° SE visible
30 Apr - 22:55:49 10° SW 23:03:16 21° S 23:08:32 10° SE visible
